| time (UTC) | temp C | wind direction | speed KPH | gust KPH | rain 1hr cm | rain 24hr cm | rain mn cm | humidity % | barometer mb |
| 20260510183919 | 11 | 201 | 3.2 | 4.8 | 0.00 | 0.00 | 0.00 | 56 | 1017.8 |
| 20260510182835 | 11 | 183 | 1.6 | 4.8 | 0.00 | 0.00 | 0.00 | 55 | 1017.7 |
| 20260510181920 | 11 | 162 | 1.6 | 3.2 | 0.00 | 0.00 | 0.00 | 56 | 1017.6 |
| 20260510180836 | 11 | 186 | 3.2 | 8.0 | 0.00 | 0.00 | 0.00 | 54 | 1017.9 |
| 20260510175920 | 12 | 164 | 3.2 | 4.8 | 0.00 | 0.00 | 0.00 | 55 | 1017.9 |
| 20260510174837 | 12 | 167 | 1.6 | 3.2 | 0.00 | 0.00 | 0.00 | 56 | 1018.0 |
| 20260510173805 | 12 | 124 | 4.8 | 8.0 | 0.00 | 0.00 | 0.00 | 55 | 1018.0 |
| 20260510172723 | 12 | 124 | 3.2 | 8.0 | 0.00 | 0.00 | 0.00 | 56 | 1018.1 |
| 20260510171826 | 12 | 307 | 0.0 | 4.8 | 0.00 | 0.00 | 0.00 | 56 | 1018.0 |
| 20260510170742 | 12 | 137 | 3.2 | 3.2 | 0.00 | 0.00 | 0.00 | 57 | 1018.1 |
| 20260510165807 | 12 | 79 | 3.2 | 9.7 | 0.00 | 0.00 | 0.00 | 57 | 1018.2 |
| 20260510164723 | 12 | 137 | 6.4 | 8.0 | 0.00 | 0.00 | 0.00 | 56 | 1018.3 |
| 20260510163640 | 12 | 149 | 3.2 | 4.8 | 0.00 | 0.00 | 0.00 | 58 | 1018.6 |
| 20260510162623 | 12 | 190 | 1.6 | 3.2 | 0.00 | 0.00 | 0.00 | 58 | 1018.6 |
| 20260510161709 | 12 | 167 | 3.2 | 9.7 | 0.00 | 0.00 | 0.00 | 57 | 1018.7 |
| 20260510160626 | 12 | 137 | 4.8 | 4.8 | 0.00 | 0.00 | 0.00 | 59 | 1018.6 |
| 20260510155709 | 12 | 148 | 4.8 | 4.8 | 0.00 | 0.00 | 0.00 | 59 | 1018.7 |
| 20260510154626 | 13 | 169 | 4.8 | 8.0 | 0.00 | 0.00 | 0.00 | 58 | 1018.9 |
| 20260510153710 | 13 | 170 | 6.4 | 9.7 | 0.00 | 0.00 | 0.00 | 58 | 1018.9 |
| 20260510152627 | 12 | 135 | 3.2 | 4.8 | 0.00 | 0.00 | 0.00 | 59 | 1018.9 |
| 20260510151712 | 12 | 177 | 4.8 | 8.0 | 0.00 | 0.00 | 0.00 | 58 | 1019.2 |
| 20260510150628 | 13 | 195 | 1.6 | 4.8 | 0.00 | 0.00 | 0.00 | 60 | 1019.2 |
| 20260510145712 | 13 | 105 | 1.6 | 4.8 | 0.00 | 0.00 | 0.00 | 61 | 1019.3 |
| 20260510144629 | 12 | 168 | 4.8 | 8.0 | 0.00 | 0.00 | 0.00 | 60 | 1019.6 |
| 20260510143712 | 13 | 132 | 1.6 | 3.2 | 0.00 | 0.00 | 0.00 | 61 | 1019.6 |
| 20260510142629 | 12 | 194 | 1.6 | 3.2 | 0.00 | 0.00 | 0.00 | 62 | 1019.6 |
| 20260510141713 | 13 | 153 | 3.2 | 4.8 | 0.00 | 0.00 | 0.00 | 62 | 1019.7 |
| 20260510140629 | 13 | 357 | 1.6 | 8.0 | 0.00 | 0.00 | 0.00 | 62 | 1019.6 |
| 20260510135734 | 12 | 143 | 3.2 | 9.7 | 0.00 | 0.00 | 0.00 | 65 | 1019.8 |
| 20260510134631 | 12 | 0.0 | 8.0 | 0.00 | 0.00 | 0.00 | 65 | 1019.8 | |
| 20260510133735 | 12 | 210 | 1.6 | 4.8 | 0.00 | 0.00 | 0.00 | 65 | 1019.9 |
| 20260510132651 | 12 | 187 | 4.8 | 11.3 | 0.00 | 0.00 | 0.00 | 65 | 1020.1 |
| 20260510131716 | 11 | 152 | 1.6 | 8.0 | 0.00 | 0.00 | 0.00 | 67 | 1020.1 |
| 20260510130632 | 12 | 200 | 3.2 | 8.0 | 0.00 | 0.00 | 0.00 | 67 | 1020.3 |
| 20260510125718 | 12 | 144 | 1.6 | 4.8 | 0.00 | 0.00 | 0.00 | 68 | 1020.3 |
| 20260510124633 | 11 | 217 | 6.4 | 8.0 | 0.00 | 0.00 | 0.00 | 68 | 1020.3 |
| 20260510123758 | 12 | 161 | 1.6 | 4.8 | 0.00 | 0.00 | 0.00 | 69 | 1020.5 |
| 20260510122654 | 11 | 168 | 4.8 | 4.8 | 0.00 | 0.00 | 0.00 | 71 | 1020.5 |
| 20260510121718 | 11 | 201 | 3.2 | 9.7 | 0.00 | 0.00 | 0.00 | 72 | 1020.7 |
| 20260510120634 | 11 | 190 | 4.8 | 4.8 | 0.00 | 0.00 | 0.00 | 73 | 1020.7 |
| 20260510115719 | 11 | 181 | 3.2 | 4.8 | 0.00 | 0.00 | 0.00 | 73 | 1020.7 |
| 20260510114635 | 11 | 164 | 1.6 | 4.8 | 0.00 | 0.00 | 0.00 | 74 | 1020.7 |
| 20260510113720 | 11 | 153 | 3.2 | 8.0 | 0.00 | 0.00 | 0.00 | 75 | 1021.0 |
| 20260510112636 | 11 | 140 | 3.2 | 4.8 | 0.00 | 0.00 | 0.00 | 76 | 1021.0 |
| 20260510111721 | 11 | 182 | 1.6 | 9.7 | 0.00 | 0.00 | 0.00 | 77 | 1021.1 |
| 20260510110657 | 11 | 122 | 6.4 | 9.7 | 0.00 | 0.00 | 0.00 | 77 | 1021.3 |
| 20260510105722 | 11 | 159 | 1.6 | 4.8 | 0.00 | 0.00 | 0.00 | 77 | 1021.3 |
| 20260510104639 | 11 | 153 | 3.2 | 4.8 | 0.00 | 0.00 | 0.00 | 77 | 1021.4 |
| 20260510103722 | 11 | 131 | 4.8 | 4.8 | 0.00 | 0.00 | 0.00 | 77 | 1021.3 |
| 20260510102638 | 10 | 191 | 3.2 | 4.8 | 0.00 | 0.00 | 0.00 | 77 | 1021.5 |
| 20260510101723 | 11 | 177 | 4.8 | 4.8 | 0.00 | 0.00 | 0.00 | 77 | 1021.4 |
| 20260510100640 | 11 | 167 | 3.2 | 4.8 | 0.00 | 0.00 | 0.00 | 78 | 1021.5 |
| 20260510095744 | 10 | 180 | 1.6 | 4.8 | 0.00 | 0.00 | 0.00 | 78 | 1021.4 |
| 20260510094640 | 10 | 115 | 4.8 | 9.7 | 0.00 | 0.00 | 0.00 | 78 | 1021.5 |
| 20260510093726 | 11 | 135 | 1.6 | 4.8 | 0.00 | 0.00 | 0.00 | 78 | 1021.4 |
| 20260510092641 | 10 | 107 | 6.4 | 8.0 | 0.00 | 0.00 | 0.00 | 78 | 1021.7 |
| 20260510091725 | 10 | 123 | 1.6 | 8.0 | 0.00 | 0.00 | 0.00 | 79 | 1021.7 |
| 20260510090702 | 10 | 174 | 3.2 | 4.8 | 0.00 | 0.00 | 0.00 | 80 | 1021.8 |
| 20260510085726 | 10 | 175 | 3.2 | 4.8 | 0.00 | 0.00 | 0.00 | 80 | 1021.5 |
| 20260510084702 | 10 | 195 | 3.2 | 4.8 | 0.00 | 0.00 | 0.00 | 80 | 1022.0 |
| 20260510083727 | 10 | 206 | 0.0 | 3.2 | 0.00 | 0.00 | 0.00 | 82 | 1021.9 |
| 20260510082644 | 10 | 155 | 1.6 | 4.8 | 0.00 | 0.00 | 0.00 | 82 | 1021.9 |
| 20260510081728 | 10 | 119 | 1.6 | 4.8 | 0.00 | 0.00 | 0.00 | 81 | 1022.1 |
| 20260510080645 | 10 | 155 | 3.2 | 4.8 | 0.00 | 0.00 | 0.00 | 80 | 1022.0 |
| 20260510075729 | 10 | 206 | 4.8 | 8.0 | 0.00 | 0.00 | 0.00 | 81 | 1021.7 |
| 20260510074646 | 10 | 172 | 1.6 | 4.8 | 0.00 | 0.00 | 0.00 | 81 | 1021.9 |
| 20260510073749 | 10 | 183 | 3.2 | 4.8 | 0.00 | 0.00 | 0.00 | 81 | 1021.8 |
| 20260510072646 | 10 | 177 | 3.2 | 8.0 | 0.00 | 0.00 | 0.00 | 81 | 1021.8 |
| 20260510071730 | 10 | 203 | 3.2 | 8.0 | 0.00 | 0.00 | 0.00 | 82 | 1022.0 |
| 20260510070647 | 10 | 140 | 4.8 | 8.0 | 0.00 | 0.00 | 0.00 | 82 | 1021.7 |
| 20260510065731 | 10 | 130 | 3.2 | 8.0 | 0.00 | 0.00 | 0.00 | 83 | 1021.7 |
| 20260510064649 | 10 | 192 | 1.6 | 4.8 | 0.00 | 0.00 | 0.00 | 84 | 1021.4 |
| 20260510063604 | 9 | 174 | 3.2 | 3.2 | 0.00 | 0.00 | 0.00 | 85 | 1021.5 |
| 20260510062533 | 9 | 182 | 4.8 | 4.8 | 0.00 | 0.00 | 0.00 | 86 | 1021.3 |
| 20260510061605 | 9 | 178 | 3.2 | 8.0 | 0.00 | 0.00 | 0.00 | 87 | 1021.4 |
| 20260510060533 | 9 | 139 | 1.6 | 3.2 | 0.00 | 0.00 | 0.00 | 87 | 1021.5 |
| 20260510055606 | 8 | 195 | 3.2 | 4.8 | 0.00 | 0.00 | 0.00 | 87 | 1021.5 |
| 20260510054534 | 9 | 187 | 3.2 | 4.8 | 0.00 | 0.00 | 0.00 | 87 | 1021.4 |
| 20260510053607 | 9 | 123 | 3.2 | 4.8 | 0.00 | 0.00 | 0.00 | 87 | 1021.3 |
| 20260510052535 | 9 | 140 | 3.2 | 3.2 | 0.00 | 0.00 | 0.00 | 86 | 1021.4 |
| 20260510051628 | 9 | 123 | 1.6 | 4.8 | 0.00 | 0.00 | 0.00 | 87 | 1021.3 |
| 20260510050536 | 8 | 183 | 4.8 | 4.8 | 0.00 | 0.00 | 0.00 | 87 | 1021.5 |
| 20260510045608 | 8 | 135 | 4.8 | 4.8 | 0.00 | 0.00 | 0.00 | 88 | 1021.5 |
| 20260510044537 | 8 | 165 | 1.6 | 4.8 | 0.00 | 0.00 | 0.00 | 88 | 1021.5 |
| 20260510043609 | 8 | 121 | 4.8 | 8.0 | 0.00 | 0.00 | 0.00 | 87 | 1021.4 |
| 20260510042537 | 9 | 145 | 3.2 | 8.0 | 0.00 | 0.00 | 0.00 | 87 | 1021.8 |
| 20260510041610 | 9 | 174 | 3.2 | 4.8 | 0.00 | 0.00 | 0.00 | 87 | 1021.4 |
| 20260510040538 | 9 | 181 | 3.2 | 4.8 | 0.00 | 0.00 | 0.00 | 86 | 1021.5 |
| 20260510035611 | 9 | 169 | 3.2 | 4.8 | 0.00 | 0.00 | 0.00 | 87 | 1021.7 |
| 20260510034540 | 9 | 148 | 1.6 | 4.8 | 0.00 | 0.00 | 0.00 | 87 | 1021.7 |
| 20260510033611 | 9 | 130 | 3.2 | 3.2 | 0.00 | 0.00 | 0.00 | 87 | 1021.5 |
| 20260510032540 | 9 | 195 | 4.8 | 4.8 | 0.00 | 0.00 | 0.00 | 87 | 1022.1 |
| 20260510031613 | 9 | 110 | 4.8 | 8.0 | 0.00 | 0.00 | 0.00 | 87 | 1021.8 |
| 20260510030541 | 9 | 178 | 3.2 | 4.8 | 0.00 | 0.00 | 0.00 | 87 | 1021.9 |
| 20260510025613 | 9 | 174 | 3.2 | 8.0 | 0.00 | 0.00 | 0.00 | 87 | 1021.8 |
| 20260510024548 | 9 | 193 | 3.2 | 8.0 | 0.00 | 0.00 | 0.00 | 87 | 1022.1 |
| 20260510023614 | 9 | 132 | 3.2 | 4.8 | 0.00 | 0.00 | 0.00 | 87 | 1021.9 |
| 20260510022542 | 9 | 177 | 1.6 | 4.8 | 0.00 | 0.00 | 0.00 | 87 | 1021.9 |
| 20260510021615 | 9 | 158 | 1.6 | 3.2 | 0.00 | 0.00 | 0.00 | 87 | 1022.1 |
| 20260510020623 | 9 | 151 | 1.6 | 3.2 | 0.00 | 0.00 | 0.00 | 87 | 1022.1 |
| 20260510015616 | 9 | 142 | 3.2 | 3.2 | 0.00 | 0.00 | 0.00 | 87 | 1022.2 |
| 20260510014545 | 8 | 142 | 3.2 | 3.2 | 0.00 | 0.00 | 0.00 | 87 | 1022.1 |
| 20260510013616 | 8 | 131 | 3.2 | 3.2 | 0.00 | 0.00 | 0.00 | 87 | 1022.3 |
| 20260510012545 | 8 | 164 | 1.6 | 4.8 | 0.00 | 0.00 | 0.00 | 86 | 1022.4 |
| 20260510011757 | 8 | 144 | 3.2 | 4.8 | 0.00 | 0.00 | 0.00 | 84 | 1022.2 |
| 20260510010546 | 9 | 144 | 1.6 | 3.2 | 0.00 | 0.00 | 0.00 | 82 | 1022.1 |
| 20260510005618 | 9 | 166 | 3.2 | 4.8 | 0.00 | 0.00 | 0.00 | 80 | 1022.0 |
| 20260510004546 | 9 | 33 | 1.6 | 3.2 | 0.00 | 0.00 | 0.00 | 78 | 1022.2 |
| 20260510003619 | 9 | 149 | 1.6 | 3.2 | 0.00 | 0.00 | 0.00 | 76 | 1022.0 |
| 20260510002608 | 9 | 157 | 1.6 | 8.0 | 0.00 | 0.00 | 0.00 | 75 | 1021.9 |
| 20260510001519 | 10 | 181 | 1.6 | 3.2 | 0.00 | 0.00 | 0.00 | 75 | 1022.1 |
| 20260510000604 | 10 | 186 | 4.8 | 4.8 | 0.00 | 0.00 | 0.00 | 74 | 1022.0 |
| 20260509235521 | 10 | 191 | 4.8 | 4.8 | 0.00 | 0.00 | 0.00 | 74 | 1021.9 |
| 20260509234504 | 10 | 146 | 4.8 | 4.8 | 0.00 | 0.00 | 0.00 | 73 | 1021.8 |
| 20260509233422 | 10 | 158 | 3.2 | 4.8 | 0.00 | 0.00 | 0.00 | 71 | 1022.1 |
| 20260509232506 | 10 | 193 | 3.2 | 4.8 | 0.00 | 0.00 | 0.00 | 69 | 1022.0 |
| 20260509231442 | 11 | 161 | 1.6 | 3.2 | 0.00 | 0.00 | 0.00 | 66 | 1022.0 |
| 20260509230507 | 11 | 173 | 3.2 | 4.8 | 0.00 | 0.00 | 0.00 | 64 | 1021.8 |
| 20260509225423 | 11 | 190 | 3.2 | 3.2 | 0.00 | 0.00 | 0.00 | 63 | 1021.8 |
| 20260509224508 | 11 | 171 | 1.6 | 4.8 | 0.00 | 0.00 | 0.00 | 61 | 1021.8 |
| 20260509223424 | 12 | 194 | 3.2 | 4.8 | 0.00 | 0.00 | 0.00 | 59 | 1021.9 |
| 20260509222509 | 12 | 189 | 3.2 | 4.8 | 0.00 | 0.00 | 0.00 | 57 | 1021.8 |
| 20260509221425 | 12 | 144 | 1.6 | 3.2 | 0.00 | 0.00 | 0.00 | 54 | 1021.7 |
| 20260509220509 | 13 | 162 | 1.6 | 3.2 | 0.00 | 0.00 | 0.00 | 53 | 1021.7 |
| 20260509215425 | 13 | 160 | 3.2 | 4.8 | 0.00 | 0.00 | 0.00 | 54 | 1021.2 |
| 20260509214510 | 13 | 0.0 | 1.6 | 0.00 | 0.00 | 0.00 | 56 | 1021.3 | |
| 20260509213426 | 13 | 177 | 1.6 | 4.8 | 0.00 | 0.00 | 0.00 | 56 | 1020.7 |
| 20260509212531 | 13 | 181 | 3.2 | 4.8 | 0.00 | 0.00 | 0.00 | 56 | 1021.0 |
| 20260509211427 | 14 | 171 | 0.0 | 3.2 | 0.00 | 0.00 | 0.00 | 56 | 1020.8 |
| 20260509210416 | 14 | 167 | 0.0 | 3.2 | 0.00 | 0.00 | 0.00 | 55 | 1020.7 |
| 20260509205328 | 14 | 0.0 | 1.6 | 0.00 | 0.00 | 0.00 | 54 | 1020.6 | |
| 20260509204413 | 15 | 180 | 3.2 | 3.2 | 0.00 | 0.00 | 0.00 | 53 | 1020.6 |
| 20260509203329 | 15 | 174 | 3.2 | 4.8 | 0.00 | 0.00 | 0.00 | 52 | 1020.3 |
| 20260509202257 | 15 | 147 | 3.2 | 3.2 | 0.00 | 0.00 | 0.00 | 51 | 1020.5 |
| 20260509201229 | 15 | 176 | 3.2 | 3.2 | 0.00 | 0.00 | 0.00 | 52 | 1020.2 |
| 20260509200258 | 15 | 134 | 0.0 | 3.2 | 0.00 | 0.00 | 0.00 | 53 | 1020.3 |
| 20260509195214 | 16 | 177 | 1.6 | 1.6 | 0.00 | 0.00 | 0.00 | 53 | 1020.1 |
| 20260509194150 | 16 | 0.0 | 1.6 | 0.00 | 0.00 | 0.00 | 54 | 1019.8 | |
| 20260509193022 | 16 | 161 | 1.6 | 1.6 | 0.00 | 0.00 | 0.00 | 52 | 1019.7 |
| 20260509192000 | 17 | 197 | 1.6 | 4.8 | 0.00 | 0.00 | 0.00 | 50 | 1019.9 |
| 20260509190932 | 17 | 181 | 1.6 | 4.8 | 0.00 | 0.00 | 0.00 | 49 | 1019.8 |
| 20260509185932 | 17 | 154 | 1.6 | 3.2 | 0.00 | 0.00 | 0.00 | 48 | 1019.6 |
| 20260509184901 | 17 | 143 | 1.6 | 3.2 | 0.00 | 0.00 | 0.00 | 46 | 1019.5 |